Year,Month,Day,Hour,Minute,Value (Times are PST for temperature in C)
2013,09,13,00,00,16.70
2013,09,13,00,01,16.70
2013,09,13,00,02,16.70
2013,09,13,00,03,16.70
2013,09,13,00,04,16.70
2013,09,13,00,05,16.70
2013,09,13,00,06,16.70
2013,09,13,00,07,16.70
2013,09,13,00,08,16.70
2013,09,13,00,09,16.60
2013,09,13,00,10,16.60
2013,09,13,00,11,16.60
2013,09,13,00,12,16.50
2013,09,13,00,13,16.50
2013,09,13,00,14,16.40
2013,09,13,00,15,16.40
2013,09,13,00,16,16.30
2013,09,13,00,17,16.30
2013,09,13,00,18,16.20
2013,09,13,00,19,16.20
2013,09,13,00,20,16.20
2013,09,13,00,21,16.10
2013,09,13,00,22,16.10
2013,09,13,00,23,16.00
2013,09,13,00,24,16.00
2013,09,13,00,25,15.90
2013,09,13,00,26,15.90
2013,09,13,00,27,15.90
2013,09,13,00,28,15.90
2013,09,13,00,29,15.90
2013,09,13,00,30,15.90
2013,09,13,00,31,15.80
2013,09,13,00,32,15.80
2013,09,13,00,33,15.80
2013,09,13,00,34,15.80
2013,09,13,00,35,15.80
2013,09,13,00,36,15.80
2013,09,13,00,37,15.80
2013,09,13,00,38,15.80
2013,09,13,00,39,15.80
2013,09,13,00,40,15.80
2013,09,13,00,41,15.80
2013,09,13,00,42,15.80
2013,09,13,00,43,15.80
2013,09,13,00,44,15.80
2013,09,13,00,45,15.70
2013,09,13,00,46,15.70
2013,09,13,00,47,15.70
2013,09,13,00,48,15.60
2013,09,13,00,49,15.60
2013,09,13,00,50,15.60
2013,09,13,00,51,15.60
2013,09,13,00,52,15.50
2013,09,13,00,53,15.50
2013,09,13,00,54,15.50
2013,09,13,00,55,15.50
2013,09,13,00,56,15.50
2013,09,13,00,57,15.60
2013,09,13,00,58,15.60
2013,09,13,00,59,15.60
2013,09,13,01,00,15.60
2013,09,13,01,01,15.60
2013,09,13,01,02,15.60
2013,09,13,01,03,15.60
2013,09,13,01,04,15.50
2013,09,13,01,05,15.40
2013,09,13,01,06,15.40
2013,09,13,01,07,15.40
2013,09,13,01,08,15.30
2013,09,13,01,09,15.30
2013,09,13,01,10,15.30
2013,09,13,01,11,15.30
2013,09,13,01,12,15.30
2013,09,13,01,13,15.20
2013,09,13,01,14,15.20
2013,09,13,01,15,15.20
2013,09,13,01,16,15.10
2013,09,13,01,17,15.00
2013,09,13,01,18,15.00
2013,09,13,01,19,15.00
2013,09,13,01,20,15.00
2013,09,13,01,21,15.00
2013,09,13,01,22,15.00
2013,09,13,01,23,15.00
2013,09,13,01,24,15.00
2013,09,13,01,25,15.00
2013,09,13,01,26,15.00
2013,09,13,01,27,15.00
2013,09,13,01,28,15.00
2013,09,13,01,29,15.00
2013,09,13,01,30,15.00
2013,09,13,01,31,15.00
2013,09,13,01,32,15.00
2013,09,13,01,33,15.00
2013,09,13,01,34,15.00
2013,09,13,01,35,15.00
2013,09,13,01,36,15.00
2013,09,13,01,37,15.00
2013,09,13,01,38,15.00
2013,09,13,01,39,15.00
2013,09,13,01,40,14.90
2013,09,13,01,41,14.90
2013,09,13,01,42,14.90
2013,09,13,01,43,14.80
2013,09,13,01,44,14.80
2013,09,13,01,45,14.80
2013,09,13,01,46,14.80
2013,09,13,01,47,14.70
2013,09,13,01,48,14.70
2013,09,13,01,49,14.70
2013,09,13,01,50,14.70
2013,09,13,01,51,14.70
2013,09,13,01,52,14.70
2013,09,13,01,53,14.70
2013,09,13,01,54,14.70
2013,09,13,01,55,14.70
2013,09,13,01,56,14.70
2013,09,13,01,57,14.70
2013,09,13,01,58,14.70
2013,09,13,01,59,14.70
2013,09,13,02,00,14.70
2013,09,13,02,01,14.70
2013,09,13,02,02,14.70
2013,09,13,02,03,14.70
2013,09,13,02,04,14.70
2013,09,13,02,05,14.70
2013,09,13,02,06,14.70
2013,09,13,02,07,14.70
2013,09,13,02,08,14.70
2013,09,13,02,09,14.70
2013,09,13,02,10,14.70
2013,09,13,02,11,14.70
2013,09,13,02,12,14.70
2013,09,13,02,13,14.60
2013,09,13,02,14,14.60
2013,09,13,02,15,14.60
2013,09,13,02,16,14.60
2013,09,13,02,17,14.60
2013,09,13,02,18,14.50
2013,09,13,02,19,14.50
2013,09,13,02,20,14.50
2013,09,13,02,21,14.50
2013,09,13,02,22,14.40
2013,09,13,02,23,14.40
2013,09,13,02,24,14.40
2013,09,13,02,25,14.40
2013,09,13,02,26,14.30
2013,09,13,02,27,14.30
2013,09,13,02,28,14.30
2013,09,13,02,29,14.30
2013,09,13,02,30,14.30
2013,09,13,02,31,14.30
2013,09,13,02,32,14.30
2013,09,13,02,33,14.30
2013,09,13,02,34,14.20
2013,09,13,02,35,14.20
2013,09,13,02,36,14.20
2013,09,13,02,37,14.20
2013,09,13,02,38,14.20
2013,09,13,02,39,14.20
2013,09,13,02,40,14.20
2013,09,13,02,41,14.20
2013,09,13,02,42,14.30
2013,09,13,02,43,14.30
2013,09,13,02,44,14.30
2013,09,13,02,45,14.30
2013,09,13,02,46,14.30
2013,09,13,02,47,14.30
2013,09,13,02,48,14.40
2013,09,13,02,49,14.40
2013,09,13,02,50,14.40
2013,09,13,02,51,14.40
2013,09,13,02,52,14.30
2013,09,13,02,53,14.30
2013,09,13,02,54,14.30
2013,09,13,02,55,14.30
2013,09,13,02,56,14.30
2013,09,13,02,57,14.30
2013,09,13,02,58,14.30
2013,09,13,02,59,14.30
2013,09,13,03,00,14.30
2013,09,13,03,01,14.30
2013,09,13,03,02,14.20
2013,09,13,03,03,14.20
2013,09,13,03,04,14.20
2013,09,13,03,05,14.20
2013,09,13,03,06,14.20
2013,09,13,03,07,14.20
2013,09,13,03,08,14.10
2013,09,13,03,09,14.10
2013,09,13,03,10,14.10
2013,09,13,03,11,14.10
2013,09,13,03,12,14.00
2013,09,13,03,13,14.00
2013,09,13,03,14,14.00
2013,09,13,03,15,13.90
2013,09,13,03,16,13.90
2013,09,13,03,17,13.90
2013,09,13,03,18,13.90
2013,09,13,03,19,13.90
2013,09,13,03,20,13.90
2013,09,13,03,21,13.80
2013,09,13,03,22,13.80
2013,09,13,03,23,13.80
2013,09,13,03,24,13.80
2013,09,13,03,25,13.80
2013,09,13,03,26,13.80
2013,09,13,03,27,13.80
2013,09,13,03,28,13.80
2013,09,13,03,29,13.80
2013,09,13,03,30,13.80
2013,09,13,03,31,13.80
2013,09,13,03,32,13.80
2013,09,13,03,33,13.80
2013,09,13,03,34,13.80
2013,09,13,03,35,13.80
2013,09,13,03,36,13.80
2013,09,13,03,37,13.80
2013,09,13,03,38,13.80
2013,09,13,03,39,13.80
2013,09,13,03,40,13.80
2013,09,13,03,41,13.70
2013,09,13,03,42,13.70
2013,09,13,03,43,13.70
2013,09,13,03,44,13.70
2013,09,13,03,45,13.70
2013,09,13,03,46,13.70
2013,09,13,03,47,13.70
2013,09,13,03,48,13.70
2013,09,13,03,49,13.70
2013,09,13,03,50,13.70
2013,09,13,03,51,13.70
2013,09,13,03,52,13.70
2013,09,13,03,53,13.60
2013,09,13,03,54,13.60
2013,09,13,03,55,13.60
2013,09,13,03,56,13.60
2013,09,13,03,57,13.50
2013,09,13,03,58,13.50
2013,09,13,03,59,13.50
2013,09,13,04,00,13.50
2013,09,13,04,01,13.40
2013,09,13,04,02,13.40
2013,09,13,04,03,13.50
2013,09,13,04,04,13.50
2013,09,13,04,05,13.50
2013,09,13,04,06,13.50
2013,09,13,04,07,13.50
2013,09,13,04,08,13.40
2013,09,13,04,09,13.40
2013,09,13,04,10,13.40
2013,09,13,04,11,13.40
2013,09,13,04,12,13.40
2013,09,13,04,13,13.40
2013,09,13,04,14,13.40
2013,09,13,04,15,13.40
2013,09,13,04,16,13.40
2013,09,13,04,17,13.40
2013,09,13,04,18,13.40
2013,09,13,04,19,13.40
2013,09,13,04,20,13.40
2013,09,13,04,21,13.40
2013,09,13,04,22,13.40
2013,09,13,04,23,13.50
2013,09,13,04,24,13.50
2013,09,13,04,25,13.50
2013,09,13,04,26,13.50
2013,09,13,04,27,13.50
2013,09,13,04,28,13.50
2013,09,13,04,29,13.50
2013,09,13,04,30,13.50
2013,09,13,04,31,13.50
2013,09,13,04,32,13.60
2013,09,13,04,33,13.60
2013,09,13,04,34,13.60
2013,09,13,04,35,13.60
2013,09,13,04,36,13.60
2013,09,13,04,37,13.50
2013,09,13,04,38,13.50
2013,09,13,04,39,13.50
2013,09,13,04,40,13.50
2013,09,13,04,41,13.40
2013,09,13,04,42,13.40
2013,09,13,04,43,13.40
2013,09,13,04,44,13.40
2013,09,13,04,45,13.40
2013,09,13,04,46,13.40
2013,09,13,04,47,13.40
2013,09,13,04,48,13.40
2013,09,13,04,49,13.40
2013,09,13,04,50,13.40
2013,09,13,04,51,13.40
2013,09,13,04,52,13.30
2013,09,13,04,53,13.30
2013,09,13,04,54,13.30
2013,09,13,04,55,13.30
2013,09,13,04,56,13.30
2013,09,13,04,57,13.30
2013,09,13,04,58,13.30
2013,09,13,04,59,13.30
2013,09,13,05,00,13.30
2013,09,13,05,01,13.20
2013,09,13,05,02,13.20
2013,09,13,05,03,13.20
2013,09,13,05,04,13.20
2013,09,13,05,05,13.20
2013,09,13,05,06,13.20
2013,09,13,05,07,13.20
2013,09,13,05,08,13.20
2013,09,13,05,09,13.20
2013,09,13,05,10,13.20
2013,09,13,05,11,13.20
2013,09,13,05,12,13.10
2013,09,13,05,13,13.10
2013,09,13,05,14,13.10
2013,09,13,05,15,13.20
2013,09,13,05,16,13.20
2013,09,13,05,17,13.10
2013,09,13,05,18,13.10
2013,09,13,05,19,13.10
2013,09,13,05,20,13.10
2013,09,13,05,21,13.10
2013,09,13,05,22,13.10
2013,09,13,05,23,13.10
2013,09,13,05,24,13.10
2013,09,13,05,25,13.10
2013,09,13,05,26,13.10
2013,09,13,05,27,13.20
2013,09,13,05,28,13.20
2013,09,13,05,29,13.20
2013,09,13,05,30,13.20
2013,09,13,05,31,13.20
2013,09,13,05,32,13.20
2013,09,13,05,33,13.20
2013,09,13,05,34,13.10
2013,09,13,05,35,13.10
2013,09,13,05,36,13.10
2013,09,13,05,37,13.10
2013,09,13,05,38,13.10
2013,09,13,05,39,13.10
2013,09,13,05,40,13.10
2013,09,13,05,41,13.10
2013,09,13,05,42,13.00
2013,09,13,05,43,13.00
2013,09,13,05,44,13.00
2013,09,13,05,45,13.00
2013,09,13,05,46,13.00
2013,09,13,05,47,13.00
2013,09,13,05,48,13.00
2013,09,13,05,49,13.00
2013,09,13,05,50,12.90
2013,09,13,05,51,12.90
2013,09,13,05,52,12.90
2013,09,13,05,53,12.90
2013,09,13,05,54,12.90
2013,09,13,05,55,12.90
2013,09,13,05,56,12.80
2013,09,13,05,57,12.80
2013,09,13,05,58,12.80
2013,09,13,05,59,12.80
2013,09,13,06,00,12.80
2013,09,13,06,01,12.70
2013,09,13,06,02,12.70
2013,09,13,06,03,12.70
2013,09,13,06,04,12.70
2013,09,13,06,05,12.70
2013,09,13,06,06,12.70
2013,09,13,06,07,12.60
2013,09,13,06,08,12.60
2013,09,13,06,09,12.60
2013,09,13,06,10,12.60
2013,09,13,06,11,12.60
2013,09,13,06,12,12.60
2013,09,13,06,13,12.60
2013,09,13,06,14,12.60
2013,09,13,06,15,12.60
2013,09,13,06,16,12.60
2013,09,13,06,17,12.60
2013,09,13,06,18,12.60
2013,09,13,06,19,12.60
2013,09,13,06,20,12.60
2013,09,13,06,21,12.60
2013,09,13,06,22,12.60
2013,09,13,06,23,12.60
2013,09,13,06,24,12.60
2013,09,13,06,25,12.60
2013,09,13,06,26,12.60
2013,09,13,06,27,12.50
2013,09,13,06,28,12.50
2013,09,13,06,29,12.60
2013,09,13,06,30,12.60
2013,09,13,06,31,12.60
2013,09,13,06,32,12.60
2013,09,13,06,33,12.60
2013,09,13,06,34,12.60
2013,09,13,06,35,12.60
2013,09,13,06,36,12.60
2013,09,13,06,37,12.60
2013,09,13,06,38,12.60
2013,09,13,06,39,12.60
2013,09,13,06,40,12.50
2013,09,13,06,41,12.50
2013,09,13,06,42,12.60
2013,09,13,06,43,12.60
2013,09,13,06,44,12.60
2013,09,13,06,45,12.60
2013,09,13,06,46,12.60
2013,09,13,06,47,12.60
2013,09,13,06,48,12.60
2013,09,13,06,49,12.60
2013,09,13,06,50,12.60
2013,09,13,06,51,12.60
2013,09,13,06,52,12.60
2013,09,13,06,53,12.60
2013,09,13,06,54,12.50
2013,09,13,06,55,12.50
2013,09,13,06,56,12.50
2013,09,13,06,57,12.50
2013,09,13,06,58,12.50
2013,09,13,06,59,12.50
2013,09,13,07,00,12.40
2013,09,13,07,01,12.40
2013,09,13,07,02,12.40
2013,09,13,07,03,12.40
2013,09,13,07,04,12.40
2013,09,13,07,05,12.50
2013,09,13,07,06,12.50
2013,09,13,07,07,12.50
2013,09,13,07,08,12.50
2013,09,13,07,09,12.60
2013,09,13,07,10,12.50
2013,09,13,07,11,12.50
2013,09,13,07,12,12.50
2013,09,13,07,13,12.50
2013,09,13,07,14,12.50
2013,09,13,07,15,12.60
2013,09,13,07,16,12.60
2013,09,13,07,17,12.60
2013,09,13,07,18,12.70
2013,09,13,07,19,12.70
2013,09,13,07,20,12.70
2013,09,13,07,21,12.70
2013,09,13,07,22,12.80
2013,09,13,07,23,12.80
2013,09,13,07,24,12.80
2013,09,13,07,25,12.80
2013,09,13,07,26,12.80
2013,09,13,07,27,12.80
2013,09,13,07,28,12.80
2013,09,13,07,29,12.80
2013,09,13,07,30,12.90
2013,09,13,07,31,12.90
2013,09,13,07,32,12.90
2013,09,13,07,33,12.90
2013,09,13,07,34,12.90
2013,09,13,07,35,12.90
2013,09,13,07,36,12.90
2013,09,13,07,37,13.00
2013,09,13,07,38,13.00
2013,09,13,07,39,13.10
2013,09,13,07,40,13.10
2013,09,13,07,41,13.10
2013,09,13,07,42,13.20
2013,09,13,07,43,13.20
2013,09,13,07,44,13.20
2013,09,13,07,45,13.30
2013,09,13,07,46,13.30
2013,09,13,07,47,13.30
2013,09,13,07,48,13.30
2013,09,13,07,49,13.30
2013,09,13,07,50,13.30
2013,09,13,07,51,13.40
2013,09,13,07,52,13.40
2013,09,13,07,53,13.40
2013,09,13,07,54,13.40
2013,09,13,07,55,13.40
2013,09,13,07,56,13.40
2013,09,13,07,57,13.40
2013,09,13,07,58,13.40
2013,09,13,07,59,13.40
2013,09,13,08,00,13.40
2013,09,13,08,01,13.40
2013,09,13,08,02,13.40
2013,09,13,08,03,13.40
2013,09,13,08,04,13.50
2013,09,13,08,05,13.60
2013,09,13,08,06,13.60
2013,09,13,08,07,13.70
2013,09,13,08,08,13.70
2013,09,13,08,09,13.80
2013,09,13,08,10,13.80
2013,09,13,08,11,13.80
2013,09,13,08,12,13.80
2013,09,13,08,13,13.80
2013,09,13,08,14,13.90
2013,09,13,08,15,13.90
2013,09,13,08,16,13.90
2013,09,13,08,17,14.00
2013,09,13,08,18,14.00
2013,09,13,08,19,14.00
2013,09,13,08,20,14.10
2013,09,13,08,21,14.10
2013,09,13,08,22,14.10
2013,09,13,08,23,14.10
2013,09,13,08,24,14.20
2013,09,13,08,25,14.20
2013,09,13,08,26,14.20
2013,09,13,08,27,14.20
2013,09,13,08,28,14.20
2013,09,13,08,29,14.20
2013,09,13,08,30,14.20
2013,09,13,08,31,14.20
2013,09,13,08,32,14.20
2013,09,13,08,33,14.20
2013,09,13,08,34,14.10
2013,09,13,08,35,14.10
2013,09,13,08,36,14.10
2013,09,13,08,37,14.10
2013,09,13,08,38,14.10
2013,09,13,08,39,14.20
2013,09,13,08,40,14.20
2013,09,13,08,41,14.20
2013,09,13,08,42,14.20
2013,09,13,08,43,14.20
2013,09,13,08,44,14.30
2013,09,13,08,45,14.30
2013,09,13,08,46,14.30
2013,09,13,08,47,14.30
2013,09,13,08,48,14.30
2013,09,13,08,49,14.30
2013,09,13,08,50,14.30
2013,09,13,08,51,14.40
2013,09,13,08,52,14.40
2013,09,13,08,53,14.40
2013,09,13,08,54,14.50
2013,09,13,08,55,14.50
2013,09,13,08,56,14.60
2013,09,13,08,57,14.60
2013,09,13,08,58,14.60
2013,09,13,08,59,14.60
2013,09,13,09,00,14.70
2013,09,13,09,01,14.70
2013,09,13,09,02,14.70
2013,09,13,09,03,14.80
2013,09,13,09,04,14.80
2013,09,13,09,05,14.80
2013,09,13,09,06,14.80
2013,09,13,09,07,14.90
2013,09,13,09,08,14.90
2013,09,13,09,09,15.00
2013,09,13,09,10,15.00
2013,09,13,09,11,15.00
2013,09,13,09,12,15.00
2013,09,13,09,13,15.00
2013,09,13,09,14,15.00
2013,09,13,09,15,15.00
2013,09,13,09,16,15.00
2013,09,13,09,17,15.00
2013,09,13,09,18,15.00
2013,09,13,09,19,15.00
2013,09,13,09,20,15.00
2013,09,13,09,21,15.00
2013,09,13,09,22,15.00
2013,09,13,09,23,15.00
2013,09,13,09,24,15.00
2013,09,13,09,25,15.00
2013,09,13,09,26,15.00
2013,09,13,09,27,15.00
2013,09,13,09,28,15.10
2013,09,13,09,29,15.10
2013,09,13,09,30,15.20
2013,09,13,09,31,15.20
2013,09,13,09,32,15.30
2013,09,13,09,33,15.30
2013,09,13,09,34,15.40
2013,09,13,09,35,15.40
2013,09,13,09,36,15.40
2013,09,13,09,37,15.50
2013,09,13,09,38,15.50
2013,09,13,09,39,15.50
2013,09,13,09,40,15.60
2013,09,13,09,41,15.60
2013,09,13,09,42,15.70
2013,09,13,09,43,15.70
2013,09,13,09,44,15.80
2013,09,13,09,45,15.90
2013,09,13,09,46,16.00
2013,09,13,09,47,16.10
2013,09,13,09,48,16.20
2013,09,13,09,49,16.30
2013,09,13,09,50,16.40
2013,09,13,09,51,16.50
2013,09,13,09,52,16.60
2013,09,13,09,53,16.80
2013,09,13,09,54,16.90
2013,09,13,09,55,17.00
2013,09,13,09,56,17.10
2013,09,13,09,57,17.20
2013,09,13,09,58,17.20
2013,09,13,09,59,17.30
2013,09,13,10,00,17.40
2013,09,13,10,01,17.50
2013,09,13,10,02,17.60
2013,09,13,10,03,17.70
2013,09,13,10,04,17.80
2013,09,13,10,05,17.80
2013,09,13,10,06,17.90
2013,09,13,10,07,18.00
2013,09,13,10,08,18.00
2013,09,13,10,09,18.00
2013,09,13,10,10,18.00
2013,09,13,10,11,18.00
2013,09,13,10,12,18.10
2013,09,13,10,13,18.10
2013,09,13,10,14,18.20
2013,09,13,10,15,18.30
2013,09,13,10,16,18.40
2013,09,13,10,17,18.40
2013,09,13,10,18,18.50
2013,09,13,10,19,18.50
2013,09,13,10,20,18.50
2013,09,13,10,21,18.50
2013,09,13,10,22,18.50
2013,09,13,10,23,18.50
2013,09,13,10,24,18.50
2013,09,13,10,25,18.50
2013,09,13,10,26,18.50
2013,09,13,10,27,18.50
2013,09,13,10,28,18.50
2013,09,13,10,29,18.50
2013,09,13,10,30,18.60
2013,09,13,10,31,18.60
2013,09,13,10,32,18.60
2013,09,13,10,33,18.60
2013,09,13,10,34,18.60
2013,09,13,10,35,18.60
2013,09,13,10,36,18.50
2013,09,13,10,37,18.50
2013,09,13,10,38,18.50
2013,09,13,10,39,18.40
2013,09,13,10,40,18.40
2013,09,13,10,41,18.50
2013,09,13,10,42,18.50
2013,09,13,10,43,18.50
2013,09,13,10,44,18.60
2013,09,13,10,45,18.60
2013,09,13,10,46,18.70
2013,09,13,10,47,18.70
2013,09,13,10,48,18.70
2013,09,13,10,49,18.70
2013,09,13,10,50,18.70
2013,09,13,10,51,18.70
2013,09,13,10,52,18.70
2013,09,13,10,53,18.70
2013,09,13,10,54,18.70
2013,09,13,10,55,18.80
2013,09,13,10,56,18.80
2013,09,13,10,57,18.90
2013,09,13,10,58,18.90
2013,09,13,10,59,19.00
2013,09,13,11,00,19.00
2013,09,13,11,01,19.00
2013,09,13,11,02,19.00
2013,09,13,11,03,18.90
2013,09,13,11,04,18.80
2013,09,13,11,05,18.80
2013,09,13,11,06,18.80
2013,09,13,11,07,18.80
2013,09,13,11,08,18.90
2013,09,13,11,09,18.90
2013,09,13,11,10,19.00
2013,09,13,11,11,19.10
2013,09,13,11,12,19.10
2013,09,13,11,13,19.10
2013,09,13,11,14,19.20
2013,09,13,11,15,19.20
2013,09,13,11,16,19.20
2013,09,13,11,17,19.20
2013,09,13,11,18,19.20
2013,09,13,11,19,19.10
2013,09,13,11,20,19.10
2013,09,13,11,21,19.00
2013,09,13,11,22,19.00
2013,09,13,11,23,18.90
2013,09,13,11,24,18.80
2013,09,13,11,25,18.80
2013,09,13,11,26,18.90
2013,09,13,11,27,18.90
2013,09,13,11,28,18.90
2013,09,13,11,29,19.00
2013,09,13,11,30,19.10
2013,09,13,11,31,19.20
2013,09,13,11,32,19.30
2013,09,13,11,33,19.30
2013,09,13,11,34,19.40
2013,09,13,11,35,19.50
2013,09,13,11,36,19.50
2013,09,13,11,37,19.60
2013,09,13,11,38,19.50
2013,09,13,11,39,19.50
2013,09,13,11,40,19.30
2013,09,13,11,41,19.30
2013,09,13,11,42,19.20
2013,09,13,11,43,19.00
2013,09,13,11,44,18.90
2013,09,13,11,45,18.90
2013,09,13,11,46,18.90
2013,09,13,11,47,18.80
2013,09,13,11,48,18.80
2013,09,13,11,49,18.80
2013,09,13,11,50,18.80
2013,09,13,11,51,18.80
2013,09,13,11,52,18.90
2013,09,13,11,53,18.90
2013,09,13,11,54,18.80
2013,09,13,11,55,18.70
2013,09,13,11,56,18.50
2013,09,13,11,57,18.20
2013,09,13,11,58,18.10
2013,09,13,11,59,17.90
2013,09,13,12,00,17.60
2013,09,13,12,01,17.40
2013,09,13,12,02,17.30
2013,09,13,12,03,17.20
2013,09,13,12,04,17.10
2013,09,13,12,05,16.90
2013,09,13,12,06,16.80
2013,09,13,12,07,16.70
2013,09,13,12,08,16.60
2013,09,13,12,09,16.60
2013,09,13,12,10,16.60
2013,09,13,12,11,16.70
2013,09,13,12,12,16.70
2013,09,13,12,13,16.80
2013,09,13,12,14,16.90
2013,09,13,12,15,17.00
2013,09,13,12,16,17.10
2013,09,13,12,17,17.20
2013,09,13,12,18,17.30
2013,09,13,12,19,17.30
2013,09,13,12,20,17.40
2013,09,13,12,21,17.50
2013,09,13,12,22,17.60
2013,09,13,12,23,17.70
2013,09,13,12,24,17.80
2013,09,13,12,25,17.90
2013,09,13,12,26,18.00
2013,09,13,12,27,18.00
2013,09,13,12,28,17.90
2013,09,13,12,29,17.80
2013,09,13,12,30,17.70
2013,09,13,12,31,17.80
2013,09,13,12,32,17.80
2013,09,13,12,33,17.80
2013,09,13,12,34,17.90
2013,09,13,12,35,17.90
2013,09,13,12,36,18.00
2013,09,13,12,37,18.10
2013,09,13,12,38,18.10
2013,09,13,12,39,18.10
2013,09,13,12,40,18.20
2013,09,13,12,41,18.20
2013,09,13,12,42,18.40
2013,09,13,12,43,18.40
2013,09,13,12,44,18.50
2013,09,13,12,45,18.60
2013,09,13,12,46,18.60
2013,09,13,12,47,18.70
2013,09,13,12,48,18.70
2013,09,13,12,49,18.70
2013,09,13,12,50,18.70
2013,09,13,12,51,18.70
2013,09,13,12,52,18.80
2013,09,13,12,53,18.90
2013,09,13,12,54,19.00
2013,09,13,12,55,19.10
2013,09,13,12,56,19.20
2013,09,13,12,57,19.20
2013,09,13,12,58,19.20
2013,09,13,12,59,19.20
2013,09,13,13,00,19.10
2013,09,13,13,01,19.00
2013,09,13,13,02,19.00
2013,09,13,13,03,18.90
2013,09,13,13,04,18.90
2013,09,13,13,05,18.90
2013,09,13,13,06,18.90
2013,09,13,13,07,19.00
2013,09,13,13,08,19.00
2013,09,13,13,09,19.10
2013,09,13,13,10,18.90
2013,09,13,13,11,18.90
2013,09,13,13,12,18.90
2013,09,13,13,13,18.90
2013,09,13,13,14,19.00
2013,09,13,13,15,19.10
2013,09,13,13,16,19.20
2013,09,13,13,17,19.40
2013,09,13,13,18,19.50
2013,09,13,13,19,19.40
2013,09,13,13,20,19.30
2013,09,13,13,21,19.00
2013,09,13,13,22,18.70
2013,09,13,13,23,18.60
2013,09,13,13,24,18.50
2013,09,13,13,25,18.40
2013,09,13,13,26,18.30
2013,09,13,13,27,18.20
2013,09,13,13,28,18.10
2013,09,13,13,29,18.00
2013,09,13,13,30,17.80
2013,09,13,13,31,17.70
2013,09,13,13,32,17.60
2013,09,13,13,33,17.50
2013,09,13,13,34,17.40
2013,09,13,13,35,17.30
2013,09,13,13,36,17.40
2013,09,13,13,37,17.40
2013,09,13,13,38,17.40
2013,09,13,13,39,17.40
2013,09,13,13,40,17.40
2013,09,13,13,41,17.30
2013,09,13,13,42,17.10
2013,09,13,13,43,17.00
2013,09,13,13,44,16.90
2013,09,13,13,45,16.90
2013,09,13,13,46,16.90
2013,09,13,13,47,16.90
2013,09,13,13,48,16.90
2013,09,13,13,49,16.90
2013,09,13,13,50,17.00
2013,09,13,13,51,17.00
2013,09,13,13,52,17.10
2013,09,13,13,53,17.10
2013,09,13,13,54,17.20
2013,09,13,13,55,17.20
2013,09,13,13,56,17.30
2013,09,13,13,57,17.30
2013,09,13,13,58,17.40
2013,09,13,13,59,17.40
2013,09,13,14,00,17.40
2013,09,13,14,01,17.50
2013,09,13,14,02,17.50
2013,09,13,14,03,17.60
2013,09,13,14,04,17.60
2013,09,13,14,05,17.50
2013,09,13,14,06,17.50
2013,09,13,14,07,17.50
2013,09,13,14,08,17.50
2013,09,13,14,09,17.50
2013,09,13,14,10,17.50
2013,09,13,14,11,17.50
2013,09,13,14,12,17.60
2013,09,13,14,13,17.60
2013,09,13,14,14,17.60
2013,09,13,14,15,17.50
2013,09,13,14,16,17.60
2013,09,13,14,17,17.60
2013,09,13,14,18,17.60
2013,09,13,14,19,17.60
2013,09,13,14,20,17.70
2013,09,13,14,21,17.70
2013,09,13,14,22,17.80
2013,09,13,14,23,17.90
2013,09,13,14,24,18.00
2013,09,13,14,25,18.10
2013,09,13,14,26,18.20
2013,09,13,14,27,18.10
2013,09,13,14,28,18.10
2013,09,13,14,29,18.00
2013,09,13,14,30,18.00
2013,09,13,14,31,17.90
2013,09,13,14,32,17.90
2013,09,13,14,33,17.90
2013,09,13,14,34,17.90
2013,09,13,14,35,18.00
2013,09,13,14,36,18.00
2013,09,13,14,37,18.10
2013,09,13,14,38,18.10
2013,09,13,14,39,18.10
2013,09,13,14,40,18.00
2013,09,13,14,41,17.90
2013,09,13,14,42,17.90
2013,09,13,14,43,17.90
2013,09,13,14,44,18.00
2013,09,13,14,45,18.00
2013,09,13,14,46,18.10
2013,09,13,14,47,18.00
2013,09,13,14,48,18.00
2013,09,13,14,49,17.90
2013,09,13,14,50,17.90
2013,09,13,14,51,17.90
2013,09,13,14,52,17.90
2013,09,13,14,53,17.90
2013,09,13,14,54,17.90
2013,09,13,14,55,17.90
2013,09,13,14,56,17.90
2013,09,13,14,57,18.00
2013,09,13,14,58,18.10
2013,09,13,14,59,18.10
2013,09,13,15,00,18.20
2013,09,13,15,01,18.20
2013,09,13,15,02,18.30
2013,09,13,15,03,18.40
2013,09,13,15,04,18.50
2013,09,13,15,05,18.60
2013,09,13,15,06,18.60
2013,09,13,15,07,18.60
2013,09,13,15,08,18.60
2013,09,13,15,09,18.60
2013,09,13,15,10,18.60
2013,09,13,15,11,18.50
2013,09,13,15,12,18.50
2013,09,13,15,13,18.60
2013,09,13,15,14,18.60
2013,09,13,15,15,18.70
2013,09,13,15,16,18.80
2013,09,13,15,17,18.80
2013,09,13,15,18,18.90
2013,09,13,15,19,18.90
2013,09,13,15,20,18.90
2013,09,13,15,21,18.90
2013,09,13,15,22,19.00
2013,09,13,15,23,19.10
2013,09,13,15,24,19.20
2013,09,13,15,25,19.20
2013,09,13,15,26,19.30
2013,09,13,15,27,19.30
2013,09,13,15,28,19.30
2013,09,13,15,29,19.40
2013,09,13,15,30,19.40
2013,09,13,15,31,19.50
2013,09,13,15,32,19.60
2013,09,13,15,33,19.60
2013,09,13,15,34,19.70
2013,09,13,15,35,19.70
2013,09,13,15,36,19.70
2013,09,13,15,37,19.60
2013,09,13,15,38,19.60
2013,09,13,15,39,19.60
2013,09,13,15,40,19.60
2013,09,13,15,41,19.60
2013,09,13,15,42,19.70
2013,09,13,15,43,19.70
2013,09,13,15,44,19.70
2013,09,13,15,45,19.80
2013,09,13,15,46,19.80
2013,09,13,15,47,19.80
2013,09,13,15,48,19.80
2013,09,13,15,49,19.90
2013,09,13,15,50,20.00
2013,09,13,15,51,20.10
2013,09,13,15,52,20.20
2013,09,13,15,53,20.20
2013,09,13,15,54,20.30
2013,09,13,15,55,20.40
2013,09,13,15,56,20.40
2013,09,13,15,57,20.50
2013,09,13,15,58,20.60
2013,09,13,15,59,20.40
2013,09,13,16,00,20.40
2013,09,13,16,01,20.40
2013,09,13,16,02,20.30
2013,09,13,16,03,20.30
2013,09,13,16,04,20.20
2013,09,13,16,05,20.20
2013,09,13,16,06,20.30
2013,09,13,16,07,20.30
2013,09,13,16,08,20.30
2013,09,13,16,09,20.20
2013,09,13,16,10,20.20
2013,09,13,16,11,20.20
2013,09,13,16,12,20.10
2013,09,13,16,13,20.10
2013,09,13,16,14,20.00
2013,09,13,16,15,20.00
2013,09,13,16,16,20.00
2013,09,13,16,17,20.00
2013,09,13,16,18,20.00
2013,09,13,16,19,20.10
2013,09,13,16,20,20.10
2013,09,13,16,21,20.10
2013,09,13,16,22,20.10
2013,09,13,16,23,20.20
2013,09,13,16,24,20.20
2013,09,13,16,25,20.30
2013,09,13,16,26,20.30
2013,09,13,16,27,20.30
2013,09,13,16,28,20.30
2013,09,13,16,29,20.30
2013,09,13,16,30,20.30
2013,09,13,16,31,20.30
2013,09,13,16,32,20.30
2013,09,13,16,33,20.40
2013,09,13,16,34,20.40
2013,09,13,16,35,20.40
2013,09,13,16,36,20.40
2013,09,13,16,37,20.40
2013,09,13,16,38,20.30
2013,09,13,16,39,20.40
2013,09,13,16,40,20.50
2013,09,13,16,41,20.60
2013,09,13,16,42,20.70
2013,09,13,16,43,20.60
2013,09,13,16,44,20.50
2013,09,13,16,45,20.50
2013,09,13,16,46,20.40
2013,09,13,16,47,20.40
2013,09,13,16,48,20.40
2013,09,13,16,49,20.30
2013,09,13,16,50,20.30
2013,09,13,16,51,20.20
2013,09,13,16,52,20.20
2013,09,13,16,53,20.10
2013,09,13,16,54,20.00
2013,09,13,16,55,19.90
2013,09,13,16,56,19.90
2013,09,13,16,57,19.80
2013,09,13,16,58,19.80
2013,09,13,16,59,19.70
2013,09,13,17,00,19.70
2013,09,13,17,01,19.70
2013,09,13,17,02,19.70
2013,09,13,17,03,19.70
2013,09,13,17,04,19.70
2013,09,13,17,05,19.60
2013,09,13,17,06,19.50
2013,09,13,17,07,19.40
2013,09,13,17,08,19.30
2013,09,13,17,09,19.20
2013,09,13,17,10,19.00
2013,09,13,17,11,18.90
2013,09,13,17,12,18.90
2013,09,13,17,13,18.90
2013,09,13,17,14,18.90
2013,09,13,17,15,18.90
2013,09,13,17,16,18.80
2013,09,13,17,17,18.80
2013,09,13,17,18,18.80
2013,09,13,17,19,18.80